Date String (YYYY-MM-DD hh:mm:ss) UTC,Instrument flags,Ambient pressure (hPa),Sample flow (lpm),Bypass flow (lpm),Sample temperature (°C),Ambient temperature (°C),ASC tube jacket temperature (°C),LED temperature (°C),Box temperature (°C),Sample RH (%),Span deviation,Mass concentration (μg/m³),Mass concentration (μg/m³),Mass concentration (μg/m³)
DateTimeUTC,F1_M11,P_M11,Q1_M11,Q2_M11,T1_M11,T2_M11,T3_M11,T4_M11,T5_M11,U1_M11,ZSPAN_M11,X2_M11,X0_M11,X1_M11
2022-09-19 18:00:00,,0826.0,5.00,0.00,29.8,28.5,00.0,38.4,31.7,27.0,-000.1,0006.33,0015.86,0005.43
2022-09-19 18:01:00,,0826.0,4.99,0.00,29.9,27.7,00.0,38.4,31.7,27.8,-001.1,0006.35,0016.07,0005.45
2022-09-19 18:02:00,,0826.0,4.99,0.00,29.8,26.7,00.0,38.4,31.7,27.6,0000.0,0006.43,0016.40,0005.47
2022-09-19 18:03:00,,0825.9,4.99,0.00,29.8,26.6,00.0,38.3,31.6,27.3,-001.3,0006.44,0015.70,0005.48
2022-09-19 18:04:00,,0826.0,5.00,0.00,29.7,26.9,00.0,38.3,31.4,26.4,-000.3,0006.43,0016.22,0005.48
2022-09-19 18:05:00,,0825.9,5.00,0.00,29.7,27.2,00.0,38.3,31.4,27.1,-000.3,0006.49,0016.47,0005.50
2022-09-19 18:06:00,,0825.9,5.00,0.00,29.7,27.5,00.0,38.3,31.4,27.6,0000.0,0006.54,0016.55,0005.54
2022-09-19 18:07:00,,0825.9,5.01,0.00,29.7,27.8,00.0,38.3,31.5,26.9,-000.0,0006.64,0016.42,0005.55
2022-09-19 18:08:00,,0825.9,5.01,0.00,29.7,28.0,00.0,38.3,31.5,25.6,-000.2,0006.65,0016.01,0005.55
2022-09-19 18:09:00,,0825.9,5.00,0.00,29.7,28.2,00.0,38.3,31.6,25.8,0000.0,0006.63,0015.74,0005.53
2022-09-19 18:10:00,,0825.9,4.99,0.00,29.8,28.4,00.0,38.3,31.7,25.9,-000.3,0006.60,0015.21,0005.50
2022-09-19 18:11:00,,0825.9,5.01,0.00,29.8,28.6,00.0,38.4,31.7,27.4,-000.3,0006.63,0015.22,0005.48
2022-09-19 18:12:00,,0825.9,5.00,0.00,29.8,28.5,00.0,38.4,31.8,26.5,-000.1,0006.64,0016.39,0005.49
2022-09-19 18:13:00,,0825.9,5.00,0.00,29.8,27.5,00.0,38.4,31.7,25.8,0000.0,0006.60,0016.47,0005.47
2022-09-19 18:14:00,,0826.0,5.00,0.00,29.8,26.7,00.0,38.3,31.6,25.8,0000.0,0006.58,0016.82,0005.45
2022-09-19 18:15:00,,0825.9,4.99,0.00,29.8,26.8,00.0,38.3,31.6,27.1,0000.0,0006.60,0015.59,0005.45
2022-09-19 18:16:00,,0825.9,5.00,0.00,29.7,27.1,00.0,38.3,31.4,27.0,0000.0,0006.62,0015.80,0005.47
2022-09-19 18:17:00,,0825.9,5.01,0.00,29.7,27.4,00.0,38.3,31.4,26.8,0000.0,0006.64,0016.41,0005.46
2022-09-19 18:18:00,,0825.9,5.00,0.00,29.7,27.6,00.0,38.3,31.4,26.5,0000.0,0006.54,0016.77,0005.45
2022-09-19 18:19:00,,0825.8,4.99,0.00,29.7,27.9,00.0,38.3,31.5,26.4,0000.0,0006.60,0018.16,0005.46
2022-09-19 18:20:00,,0825.9,5.01,0.00,29.7,28.1,00.0,38.3,31.6,26.6,0000.0,0006.63,0018.94,0005.47
2022-09-19 18:21:00,,0825.9,5.00,0.00,29.7,28.3,00.0,38.3,31.6,26.5,0000.0,0006.64,0019.51,0005.50
2022-09-19 18:22:00,,0825.7,5.01,0.00,29.8,28.5,00.0,38.3,31.7,26.1,0000.0,0006.56,0018.96,0005.49
2022-09-19 18:23:00,,0825.7,4.99,0.00,29.8,28.1,00.0,38.3,31.7,26.2,0000.0,0006.58,0017.51,0005.48
2022-09-19 18:24:00,,0825.7,5.01,0.00,29.8,27.0,00.0,38.3,31.7,26.5,0000.0,0006.59,0017.35,0005.49
2022-09-19 18:25:00,,0825.7,5.00,0.00,29.7,26.6,00.0,38.3,31.6,26.5,0000.0,0006.62,0017.25,0005.50
2022-09-19 18:26:00,,0825.7,4.99,0.00,29.7,26.8,00.0,38.3,31.5,26.9,0000.0,0006.66,0018.09,0005.51
2022-09-19 18:27:00,,0825.7,5.00,0.00,29.6,27.1,00.0,38.3,31.4,26.9,0000.0,0006.65,0018.02,0005.50
2022-09-19 18:28:00,,0825.8,4.99,0.00,29.6,27.4,00.0,38.3,31.4,27.9,0000.0,0006.65,0017.55,0005.51
2022-09-19 18:29:00,,0825.7,5.01,0.00,29.6,27.7,00.0,38.3,31.4,28.2,0000.0,0006.83,0017.78,0005.57
2022-09-19 18:30:00,,0825.7,5.00,0.00,29.6,28.0,00.0,38.3,31.5,27.8,0000.0,0006.88,0016.96,0005.61
2022-09-19 18:31:00,,0825.6,5.00,0.00,29.7,28.2,00.0,38.3,31.5,27.3,0000.0,0006.94,0015.97,0005.64
2022-09-19 18:32:00,,0825.6,4.99,0.00,29.7,28.3,00.0,38.3,31.6,26.0,0000.0,0006.97,0015.60,0005.63
2022-09-19 18:33:00,,0825.6,5.01,0.00,29.7,28.5,00.0,38.3,31.7,26.5,0000.0,0007.03,0016.04,0005.64
2022-09-19 18:34:00,,0825.5,4.99,0.00,29.8,28.3,00.0,38.3,31.7,26.4,0000.0,0007.01,0015.99,0005.64
2022-09-19 18:35:00,,0825.6,4.99,0.00,29.8,27.2,00.0,38.3,31.6,26.7,0000.0,0007.00,0015.84,0005.63
2022-09-19 18:36:00,,0825.6,5.01,0.00,29.7,26.6,00.0,38.3,31.5,24.8,0000.0,0006.96,0016.78,0005.61
2022-09-19 18:37:00,,0825.6,5.00,0.00,29.7,26.8,00.0,38.3,31.5,23.8,0000.0,0006.90,0016.81,0005.55
2022-09-19 18:38:00,,0825.6,5.00,0.00,29.6,27.0,00.0,38.3,31.3,22.8,0000.0,0006.78,0016.52,0005.47
2022-09-19 18:39:00,,0825.6,5.01,0.00,29.6,27.3,00.0,38.3,31.3,23.3,0000.0,0006.64,0016.04,0005.36
2022-09-19 18:40:00,,0825.6,5.01,0.00,29.6,27.6,00.0,38.3,31.4,25.4,0000.0,0006.44,0015.16,0005.26
2022-09-19 18:41:00,,0825.6,4.99,0.00,29.6,27.9,00.0,38.2,31.5,25.9,0000.0,0006.29,0014.73,0005.18
2022-09-19 18:42:00,,0825.6,5.01,0.00,29.7,28.2,00.0,38.3,31.5,24.1,0000.0,0006.17,0014.70,0005.11
2022-09-19 18:43:00,,0825.6,5.00,0.00,29.7,28.3,00.0,38.3,31.6,23.5,0000.0,0006.08,0014.78,0005.07
2022-09-19 18:44:00,,0825.5,4.99,0.00,29.7,28.5,00.0,38.3,31.7,21.8,0000.0,0005.96,0014.90,0004.98
2022-09-19 18:45:00,,0825.5,5.00,0.00,29.8,28.6,00.0,38.3,31.7,19.2,0000.0,0005.78,0014.78,0004.84
2022-09-19 18:46:00,,0825.5,5.01,0.00,29.8,28.2,00.0,38.3,31.7,20.0,0000.0,0005.60,0014.59,0004.71
2022-09-19 18:47:00,,0825.5,5.01,0.00,29.8,27.0,00.0,38.3,31.6,22.3,0000.0,0005.51,0013.25,0004.64
2022-09-19 18:48:00,,0825.5,5.00,0.00,29.7,26.7,00.0,38.3,31.6,21.4,0000.0,0005.41,0012.48,0004.59
2022-09-19 18:49:00,,0825.5,5.00,0.00,29.7,26.9,00.0,38.3,31.5,22.0,0000.0,0005.38,0012.22,0004.57
2022-09-19 18:50:00,,0825.4,5.00,0.00,29.7,27.2,00.0,38.3,31.3,23.0,0000.0,0005.39,0012.05,0004.57
2022-09-19 18:51:00,,0825.4,5.00,0.00,29.6,27.5,00.0,38.3,31.4,21.0,0000.0,0005.32,0011.96,0004.53
2022-09-19 18:52:00,,0825.5,4.99,0.00,29.7,27.8,00.0,38.3,31.5,19.2,0000.0,0005.21,0011.56,0004.43
2022-09-19 18:53:00,,0825.4,5.00,0.00,29.7,28.1,00.0,38.3,31.5,21.3,0000.0,0005.10,0010.91,0004.34
2022-09-19 18:54:00,,0825.4,4.99,0.00,29.7,28.3,00.0,38.3,31.6,21.5,0000.0,0005.06,0010.29,0004.31
2022-09-19 18:55:00,,0825.4,5.01,0.00,29.8,28.5,00.0,38.3,31.7,21.3,0000.0,0005.06,0009.84,0004.28
2022-09-19 18:56:00,,0825.4,4.99,0.00,29.8,28.5,00.0,38.3,31.7,20.8,0000.0,0005.09,0009.58,0004.30
2022-09-19 18:57:00,,0825.4,5.01,0.00,29.8,27.7,00.0,38.3,31.7,20.4,0000.0,0005.10,0009.86,0004.33
2022-09-19 18:58:00,,0825.4,5.00,0.00,29.8,26.7,00.0,38.3,31.6,20.4,0000.0,0005.09,0009.98,0004.30
2022-09-19 18:59:00,,0825.4,5.00,0.00,29.7,26.7,00.0,38.3,31.6,20.7,0000.0,0005.06,0010.55,0004.27
